OpenBCM V1.07b12 (Linux)

Packet Radio Mailbox

DB0FHN

[JN59NK Nuernberg]

 Login: GUEST





  
I6KZR  > KEPLER   04.05.03 19:50l 351 Lines 16635 Bytes #999 (0) @ WW
BID : 739_I6KZR
Read: DB0FHN GUEST
Subj: 2L Keplerian Elements #119
Path: DB0FHN<DB0ZWI<DB0HOT<OK0PKL<OK0PPL<RZ6HXA<SP7MGD<IK6PYS<I6ZLO<IK6WID
Sent: 030428/1925Z @:IK6WID.#AP.IMAR.ITA.EU #:37773 [MONTE URANO]  FBB7.00i
From: I6KZR@IK6WID.#AP.IMAR.ITA.EU
To  : KEPLER@WW





We the willing,
  Led by the unknowing have done so much
    with so little for so long
      we are now qualified to do anything
        with nothing, In no time at all.

Inviato da: I6KZR@IK6WID.#AP.IMAR.ITA.EU        

OSCAR 7
1 07530U 74089B   03117.68686566 -.00000029 +00000-0 +10000-3 0 02030
2 07530 101.7454 164.7992 0012024 307.1570 052.8400 12.53565254301729
GOES 2
1 10061U 77048A   03110.05256413 -.00000334  00000-0  00000+0 0  1593
2 10061  14.1502  12.9744 0012144 201.8149 158.0678  0.99401519 39439
GOES 3
1 10953U 78062A   03117.74151033 -.00000115  00000-0  00000+0 0    30
2 10953  13.4409  16.7147 0006510 354.3522   5.5879  1.00280380 44186
GOES 6
1 14050U 83041A   03116.83421574 -.00000027  00000-0  10000-3 0  4440
2 14050  10.4856  35.1168 0006362   9.4399 350.5079  1.00319761131317
OSCAR 10
1 14129U 83058B   03116.43626042  .00000145  00000-0  10000-3 0  9319
2 14129  26.1009 153.3817 6000972 347.0699   2.7223  2.05867525121445
OSCAR 11 (UoSAT 2)
1 14781U 84021B   03117.98346093 +.00001600 +00000-0 +22798-3 0 01361
2 14781 098.1275 092.4932 0009843 358.7509 001.3676 14.78201204026342
NOAA 10
1 16969U 86073A   03118.53944940  .00000137  00000-0  74583-4 0  7525
2 16969  98.7361 112.5474 0011570 244.8625 115.1357 14.27092349863748
GOES 7
1 17561U 87022A   03117.46239071  .00000035  00000-0  10000-3 0  9412
2 17561   7.7303  55.0987 0004032 285.4971 220.3343  1.00276239 42420
COSMOS 1861
1 18129U 87054A   03118.46455140  .00000049  00000-0  37426-4 0  2281
2 18129  82.9212  95.5962 0013186  41.7544 318.4613 13.72707897793968
EUTELSAT 1-F4 (ECS 4)
1 18351U 87078B   03116.83122266 -.00000006  00000-0  00000+0 0   581
2 18351   7.3332  58.2490 0005924 200.2016 159.7158  0.98686693 43342
NOAA 11
1 19531U 88089A   03118.47647859  .00000173  00000-0  11328-3 0  5888
2 19531  98.8914 199.5970 0011730  11.6520 348.4925 14.14570460752547
ASTRA 1A
1 19688U 88109B   03116.91447918  .00000026  00000-0  10000-3 0  6003
2 19688   1.5529  93.3472 0004591 287.6966 167.8558  1.00273372 32872
OSCAR 14 (UOSAT 3)
1 20437U 90005B   03117.66032369 +.00000116 +00000-0 +59437-4 0 02226
2 20437 098.2618 157.9822 0011345 004.2453 355.8825 14.31260775692232
OSCAR 15 (UOSAT 4)
1 20438U 90005C   03117.65956160 +.00000081 +00000-0 +46810-4 0 08059
2 20438 098.2397 146.8178 0010720 015.6288 344.5222 14.30216384691899
OSCAR 16 (PACSAT)
1 20439U 90005D   03117.66395374 +.00000137 +00000-0 +67241-4 0 08856
2 20439 098.3044 170.0591 0011561 010.6819 349.4644 14.31499472692274
OSCAR 17 (DOVE)
1 20440U 90005E   03117.70945476 +.00000162 +00000-0 +76232-4 0 07562
2 20440 098.3239 174.1542 0011835 009.1166 351.0243 14.31779783692354
OSCAR 18 (WEBERSAT)
1 20441U 90005F   03118.20001089  .00000143  00000-0  69350-4 0   680
2 20441  98.3184 173.7907 0011911  10.1304 350.0118 14.31580747692401
OSCAR 19 (LUSAT)
1 20442U 90005G   03117.68138487  .00000141  00000-0  68328-4 0  9978
2 20442  98.3324 176.4404 0012511   9.9792 350.1637 14.31744563692386
JAS 1B (FUJI 2)
1 20480U 90013C   03117.91631812 -.00000012 +00000-0 +48506-4 0 04840
2 20480 099.0568 067.8539 0539627 209.0155 147.9933 12.83331728619285
HST
1 20580U 90037B   03117.92570457  .00001813  00000-0  13620-3 0  4077
2 20580  28.4669 313.8971 0003697 268.8388 236.0525 14.98107179512897
EUTELSAT 2-F1
1 20777U 90079B   03117.94668573 -.00000101  00000-0  10000-3 0   626
2 20777   3.6691  83.8627 0007015 357.3508 191.0511  1.00271267 26785
FENGYUN 1B
1 20788U 90081A   03118.53713667 -.00000107  00000-0 -41035-4 0  9384
2 20788  99.0356 100.0956 0017033  39.0321 321.2070 14.02150752647203
EUTELSAT 2-F2
1 21056U 91003B   03112.94275634 +.00000107 +00000-0 +10000-3 0 06386
2 21056 002.8865 087.2607 0005507 325.4954 185.6543 01.00270095032511
INFORMATOR 1
1 21087U 91006A   03117.96440779 +.00000066 +00000-0 +53266-4 0 06290
2 21087 082.9387 266.7375 0037004 059.9535 300.5285 13.74933543614289
COSMOS 2123
1 21089U 91007A   03118.55480554  .00000052  00000-0  38697-4 0  5086
2 21089  82.9192 130.2006 0030902  93.1932 267.2754 13.74411299613268
ASTRA 1B
1 21139U 91015A   03108.00000000  .00000114  00000-0  10000-3 0  1682
2 21139   0.0122 319.8851 0002995  65.1991 199.7843  1.00273184 32770
METEOSAT 5 (MOP 2)
1 21140U 91015B   03117.99329097  .00000018  00000-0  10000-3 0  8154
2 21140   5.7854  69.4509 0001075  27.6123 178.8791  1.00273529 46736
NOAA 12
1 21263U 91032A   03118.50011972  .00000311  00000-0  15101-3 0   590
2 21263  98.6346 107.0084 0012455 176.2346 183.8929 14.25129672621039
OSCAR 22 (UoSAT 5)
1 21575U 91050B   03117.98942517 +.00000307 +00000-0 +11225-3 0 07893
2 21575 098.1486 106.7046 0006633 293.4927 066.5567 14.39204138618124
METEOR 3-5
1 21655U 91056A   03117.97238953 +.00000051 +00000-0 +10000-3 0 06030
2 21655 082.5597 350.5513 0014274 030.7888 329.4069 13.16983075562482
UARS
1 21701U 91063B   03118.13922272  .00000672  00000-0  68423-4 0  8802
2 21701  56.9793 114.4778 0005236  84.6885 275.4763 15.03003073636022
EUTELSAT 2-F3
1 21803U 91083A   03117.93014104  .00000125  00000-0  10000-3 0  5469
2 21803   2.7684  88.3598 0004805 281.8061 201.8158  1.00273382 37682
INMARSAT 2-F3
1 21814U 91084B   03117.45692535 +.00000105 +00000-0 +10000-3 0 06558
2 21814 001.8821 060.2919 0003222 351.4298 185.7842 01.00274237041574
INMARSAT 2-F4
1 21940U 92021B   03113.66465124 -.00000368  00000-0  10000-3 0  5899
2 21940   2.4133  21.7241 0002038   3.1438 174.7041  1.00270002 40325
EUTELSAT 2-F4
1 22028U 92041B   03116.91864006 -.00000108  00000-0  10000-3 0  3421
2 22028   1.8850  91.5337 0006192 282.6932 158.6434  1.00271881 32459
OSCAR 23 (KITSAT 1)
1 22077U 92052B   03117.90421008 -.00000037 +00000-0 +10000-3 0 02585
2 22077 066.0902 342.6247 0015500 258.5751 101.3526 12.86410945503090
ASTRA 1C
1 22653U 93031A   03108.00000000  .00000114  00000-0  10000-3 0  7961
2 22653   0.0122 319.8851 0002995  65.1991 199.7728  1.00273184 31470
METEOR 2-21
1 22782U 93055A   03117.87644078 +.00000092 +00000-0 +70085-4 0 05800
2 22782 082.5501 160.7382 0023215 151.4661 208.7791 13.83537836487536
KITSAT B
1 22825U 93061C   03117.95347249 +.00000124 +00000-0 +65238-4 0 05444
2 22825 098.2666 144.1442 0009607 057.7603 302.4511 14.28967251499641
POSAT 1
1 22826U 93061D   03117.62298342 +.00000139 +00000-0 +70870-4 0 03495
2 22826 098.2693 144.9755 0010094 058.1181 302.0983 14.29192476499644
ITAMSAT
1 22828U 93061F   03118.07708244  .00000129  00000-0  66346-4 0  4824
2 22828  98.2634 145.6702 0010916  36.9114 323.2821 14.29530991467913
EYESAT A
1 22829U 93061G   03117.58364967 +.00000182 +00000-0 +86682-4 0 05094
2 22829 098.2654 145.8439 0010833 039.5022 320.6954 14.29802959499773
METEOSAT 6
1 22912U 93073B   03110.98704862  .00000059  00000-0  00000+0 0  7662
2 22912   2.8246  82.1213 0002856 322.3450 169.6545  1.00284576 32911
GOES 8
1 23051U 94022A   03118.30699993 -.00000247  00000-0  00000+0 0  7080
2 23051   0.4677  99.3867 0005405 340.8291 169.9199  1.00254846 40491
ASTRA 1D
1 23331U 94070A   03117.85807302  .00000133  00000-0  10000-3 0  8379
2 23331   0.0658 160.9337 0003195 233.9745 153.5995  1.00274209 31559
RADIO ROSTO
1 23439U 94085A   03115.54654919 -.00000042 +00000-0 +15205-5 0 07027
2 23439 064.8137 294.7934 0146453 102.3026 259.4331 11.27548632343036
NOAA 14
1 23455U 94089A   03118.49922782  .00000137  00000-0  98027-4 0  6083
2 23455  99.1825 138.8767 0009924  40.8080 319.3839 14.13323730429210
HIMAWARI 5 (GMS 5)
1 23522U 95011B   03118.12340185 -.00000283  00000-0  00000+0 0  2072
2 23522   1.9723  83.3423 0000923 322.0280 354.9455  1.00274918 29572
HOT BIRD 1
1 23537U 95016B   03099.84635997  .00000088  00000-0  10000-3 0  5405
2 23537   0.0227 231.2698 0003930 159.6337 124.4056  1.00270936 29475
GOES 9
1 23581U 95025A   03115.43531464 -.00000220  00000-0  00000+0 0  6362
2 23581   0.1093 276.8934 0013864 234.7711  12.3842  1.00056853 29021
INMARSAT 3-F1
1 23839U 96020A   03116.83803448  .00000006  00000-0  10000-3 0  9216
2 23839   0.0713  27.9184 0004597   9.0585 183.0038  1.00270625 25880
ASTRA 1F
1 23842U 96021A   03108.00000000  .00000114  00000-0  10000-3 0  5670
2 23842   0.0122 319.8851 0002995  65.1991 199.7635  1.00273184 25707
JAS 2
1 24278U 96046B   03117.95180262 -.00000033  00000-0  81678-6 0  5778
2 24278  98.5498 259.9214 0351477  39.3215 323.2896 13.52878819330551
UNAMSAT
1 24305U 96052B   03117.82157133 +.00000205 +00000-0 +20364-3 0 06866
2 24305 082.9316 212.3062 0032385 013.9467 346.2568 13.73460860332855
INMARSAT 3-F2
1 24307U 96053A   03114.94954284 -.00000138  00000-0  00000+0 0  1133
2 24307   0.0993  22.4006 0005494 346.1395 170.3944  1.00271717 24275
HOT BIRD 2
1 24665U 96067A   03104.95823611  .00000000  00000-0  10000-3 0  3497
2 24665   0.0337 189.6656 0009067 269.9979 100.9111  1.00271489 23811
INMARSAT 3-F3
1 24674U 96070A   03117.45945615  .00000032  00000-0  10000-3 0   367
2 24674   0.1080  61.1044 0003557 321.3070 176.1329  1.00274399 23263
GOES 10
1 24786U 97019A   03118.35678564  .00000081  00000-0  00000+0 0  6579
2 24786   0.3061  99.9919 0004780 326.2163 143.3544  1.00284836 22029
INMARSAT 3-F4
1 24819U 97027A   03117.64065485 -.00000293  00000-0  10000-3 0  9145
2 24819   0.0832  56.5437 0002630 325.6887   9.5071  1.00266656 21691
FENGYUN 2A
1 24834U 97029A   03117.89564301 -.00000200  00000-0  00000+0 0    67
2 24834   2.7407  87.6952 0001363   3.4190 173.1058  1.00267013 21525
HOT BIRD 3
1 24931U 97049A   03099.84635997  .00000088  00000-0  10000-3 0  4300
2 24931   0.0632  21.1145 0006301 353.2368 140.9901  1.00272510 20583
